Starlink 35057

operational
NORAD ID: 65525 Int'l Des: 2025-200 Owner: SPXS Country: US Constellation: starlink
LEOCIRCULARRETROGRADE

About Starlink 35057

Description loading...

Live Position

Loading 3D Globe...

Upcoming Passes

Altitude History

Altitude vs Time

uPlot chart will show altitude changes over time

Two-Line Element Set

1 65525U 25200F 25303.83336806 -.01614185 00000-0 -58303-1 0 9990
2 65525 97.6036 11.5819 0001741 71.1082 48.4347 15.31537439 5885
Epoch: Oct 30, 2025 • Age: 5 hours

Current Status

Altitude 488.9 km
Velocity 7.62 km/s
Sub-Earth Point -38.18°S, 129.17°E
Launch Date Sep 6, 2025
Age 0.1 years
Type internet

Technical Details

Classification Payload
Mass 575.00 kg
Dry Mass 530.00 kg
Total Mass 575.00 kg
Length 0.30 m
Diameter 4.10 m
Span 29.00 m
Shape Box + pan
Manufacturer SPXS
Bus Type Starlink V2MO
Phase Status In Orbit
Owner/State SPXS/US

Large Constellations

Loading constellations...